Weather History for Fairmont, MN

Change the Weather History Date:

Thursday, April 25, 2013

  Actual Average Record
Temperature  
Mean Temperature 36 °F -  
Max Temperature 39 °F 65 °F 84 °F (1949)
Min Temperature 32 °F 41 °F 30 °F (1950)
Degree Days  
Heating Degree Days 30    
Moisture  
Dew Point 20 °F    
Average Humidity 55    
Maximum Humidity 65    
Minimum Humidity 48    
Precipitation  
Precipitation 0.00 in - - ()
Sea Level Pressure  
Sea Level Pressure 30.17 in    
Wind  
Wind Speed - (North)    
Max Wind Speed -    
Max Gust Speed -    
Visibility 10 miles    
Events      
Averages and records for this station are not official NWS values.
T = Trace of Precipitation, MM = Missing Value Source: NWS Daily Summary

Daily Weather History Graph

Daily Weather History Graph

Search for Another Location

Airport:

Trip Planner

Search our weather history database for the weather conditions in past years. The results will help you decide how hot, cold, wet, or windy it might be!

Date:

Astronomy

Apr. 25, 2013 Rise Set
Actual Time 6:18 AM CDT 8:13 PM CDT
Civil Twilight 5:47 AM CDT 8:44 PM CDT
Nautical Twilight 5:10 AM CDT 9:22 PM CDT
Astronomical Twilight 4:29 AM CDT 10:03 PM CDT
Moon 8:28 PM CDT (4/25) 6:02 AM CDT (4/25)
Length of Visible Light 14h 56m
Length of Day
13h 54m
Full, 100% of the Moon is Illuminated
Apr 25
Full
Apr 25
Full
May 2
Last Quarter
May 9
New
May 17
First Quarter

Hourly Weather History & Observations

Time (CDT) Temp. Dew Point Humidity Pressure Visibility Wind Dir Wind Speed Gust Speed Precip Events Conditions
12:15 AM 37.4 °F 26.6 °F 65% 30.10 in 10.0 mi North - - N/A   Clear
12:35 AM 37.4 °F 24.8 °F 60% 30.10 in 10.0 mi North - - N/A   Clear
12:55 AM 37.4 °F 23.0 °F 56% 30.10 in 10.0 mi North - - N/A   Clear
1:15 AM 37.4 °F 21.2 °F 52% 30.11 in 10.0 mi North - - N/A   Clear
1:35 AM 37.4 °F 19.4 °F 48% 30.12 in 10.0 mi North - - N/A   Clear
1:55 AM 35.6 °F 19.4 °F 52% 30.13 in 10.0 mi North - - N/A   Clear
2:15 AM 35.6 °F 19.4 °F 52% 30.13 in 10.0 mi North - - N/A   Clear
2:35 AM 35.6 °F 19.4 °F 52% 30.14 in 10.0 mi North - - N/A   Clear
2:55 AM 35.6 °F 19.4 °F 52% 30.14 in 10.0 mi North - - N/A   Clear
3:15 AM 35.6 °F 19.4 °F 52% 30.14 in 10.0 mi North - - N/A   Clear
3:35 AM 35.6 °F 19.4 °F 52% 30.14 in 10.0 mi North - - N/A   Clear
3:55 AM 33.8 °F 19.4 °F 56% 30.15 in 10.0 mi North - - N/A   Clear
4:15 AM 33.8 °F 19.4 °F 56% 30.15 in 10.0 mi North - - N/A   Clear
4:35 AM 33.8 °F 19.4 °F 56% 30.16 in 10.0 mi North - - N/A   Clear
4:55 AM 33.8 °F 19.4 °F 56% 30.16 in 10.0 mi North - - N/A   Clear
5:15 AM 33.8 °F 19.4 °F 56% 30.17 in 10.0 mi North - - N/A   Clear
5:35 AM 33.8 °F 19.4 °F 56% 30.16 in 10.0 mi North - - N/A   Clear
5:55 AM 32.0 °F 19.4 °F 60% 30.17 in 10.0 mi North - - N/A   Clear
6:15 AM 32.0 °F 19.4 °F 60% 30.17 in 10.0 mi North - - N/A   Clear
6:35 AM 32.0 °F 19.4 °F 60% 30.19 in 10.0 mi North - - N/A   Clear
6:55 AM 32.0 °F 19.4 °F 60% 30.20 in 10.0 mi North - - N/A   Clear
7:15 AM 33.8 °F 19.4 °F 56% 30.21 in 10.0 mi North - - N/A   Clear
7:35 AM 35.6 °F 21.2 °F 56% 30.22 in 10.0 mi North - - N/A   Clear
7:55 AM 35.6 °F 19.4 °F 52% 30.23 in 10.0 mi North - - N/A   Clear
8:15 AM 35.6 °F 19.4 °F 52% 30.23 in 10.0 mi North - - N/A   Clear
8:35 AM 37.4 °F 21.2 °F 52% 30.24 in 10.0 mi North - - N/A   Clear
8:55 AM 37.4 °F 21.2 °F 52% 30.25 in 10.0 mi North - - N/A   Clear
9:15 AM 39.2 °F 21.2 °F 49% 30.25 in 10.0 mi North - - N/A   Clear
9:35 AM 39.2 °F 21.2 °F 49% 30.25 in 10.0 mi North - - N/A   Clear
9:55 AM - - N/A% - 10.0 mi North - - N/A   Clear
10:15 AM - - N/A% - 10.0 mi North - - N/A   Clear
10:35 AM - - N/A% - 10.0 mi North - - N/A   Clear
10:55 AM - - N/A% - 10.0 mi North - - N/A   Clear
11:35 AM - - N/A% - 10.0 mi North - - N/A   Unknown
11:55 AM - - N/A% - 10.0 mi North - - N/A   Clear
12:15 PM - - N/A% - 10.0 mi North - - N/A   Clear
12:35 PM - - N/A% - 10.0 mi North - - N/A   Clear
12:55 PM - - N/A% - 10.0 mi North - - N/A   Clear
1:15 PM - - N/A% - 10.0 mi North - - N/A   Clear
1:35 PM - - N/A% - 10.0 mi North - - N/A   Clear
1:55 PM - - N/A% - 10.0 mi North - - N/A   Clear
2:15 PM - - N/A% - 10.0 mi North - - N/A   Clear
2:35 PM - - N/A% - 10.0 mi North - - N/A   Clear
2:55 PM - - N/A% - 10.0 mi North - - N/A   Clear
3:15 PM - - N/A% - 10.0 mi North - - N/A   Clear
3:35 PM - - N/A% - 10.0 mi North - - N/A   Clear
3:55 PM - - N/A% - 10.0 mi North - - N/A   Clear
4:15 PM - - N/A% - 10.0 mi North - - N/A   Clear
4:35 PM - - N/A% - 10.0 mi North - - N/A   Clear
4:55 PM - - N/A% - 10.0 mi North - - N/A   Clear
5:15 PM - - N/A% - 10.0 mi North - - N/A   Clear
5:35 PM - - N/A% - 10.0 mi North - - N/A   Clear
5:55 PM - - N/A% - 10.0 mi North - - N/A   Clear
6:15 PM - - N/A% - 10.0 mi North - - N/A   Clear
6:35 PM - - N/A% - 10.0 mi North - - N/A   Clear
6:55 PM - - N/A% - 10.0 mi North - - N/A   Clear
7:15 PM - - N/A% - 10.0 mi North - - N/A   Clear
7:35 PM - - N/A% - 10.0 mi North - - N/A   Clear
7:55 PM - - N/A% - 10.0 mi North - - N/A   Clear
8:15 PM - - N/A% - 10.0 mi North - - N/A   Clear
8:35 PM - - N/A% - 10.0 mi North - - N/A   Clear
8:55 PM - - N/A% - 10.0 mi North - - N/A   Clear
9:15 PM - - N/A% - 10.0 mi North - - N/A   Clear
9:35 PM - - N/A% - 10.0 mi North - - N/A   Clear
9:55 PM - - N/A% - 10.0 mi North - - N/A   Mostly Cloudy
10:15 PM - - N/A% - 10.0 mi North - - N/A   Scattered Clouds
10:35 PM - - N/A% - 10.0 mi North - - N/A   Clear
10:55 PM - - N/A% - 10.0 mi North - - N/A   Clear
11:15 PM - - N/A% - 10.0 mi North - - N/A   Scattered Clouds
11:35 PM - - N/A% - 10.0 mi North - - N/A   Partly Cloudy
11:55 PM - - N/A% - 10.0 mi North - - N/A   Partly Cloudy